Palma de Mallorca, Spain

12:39 AM CET on December 09, 2016 (GMT +0100)
Palma De Mallorca

Weather History for LEPA - August, 2012

Change the Weather History Date:

Monday, August 6, 2012

  Actual Average Record
Temperature  
Mean Temperature 81 °F -  
Max Temperature 87 °F 85 °F 98 °F (2003)
Min Temperature 75 °F 65 °F 62 °F (1998)
Cooling Degree Days 16    
Growing Degree Days 31 (Base 50)    
Moisture  
Dew Point 71 °F    
Average Humidity 74    
Maximum Humidity 89    
Minimum Humidity 46    
Precipitation  
Precipitation 0.03 in 0.03 in - ()
Sea Level Pressure  
Sea Level Pressure 29.95 in    
Wind  
Wind Speed 6 mph ()    
Max Wind Speed 20 mph    
Max Gust Speed -    
Visibility 6.3 miles    
Events Rain    
Averages and records for this station are not official NWS values.
T = Trace of Precipitation, MM = Missing Value Source: Averaged Metar Reports

Daily Weather History Graph

Daily Weather History Graph

Search for Another Location

Airport or City:

Trip Planner

Search our weather history database for the weather conditions in past years. The results will help you decide how hot, cold, wet, or windy it might be!

Date:

Astronomy

Aug. 06, 2012 Rise Set
Actual Time 6:53 AM CEST 8:55 PM CEST
Civil Twilight 6:23 AM CEST 9:25 PM CEST
Nautical Twilight 5:47 AM CEST 10:01 PM CEST
Astronomical Twilight 5:08 AM CEST 10:40 PM CEST
Moon 10:58 PM CEST (8/6) 11:25 AM CEST (8/6)
Length of Visible Light 15h 01m
Length of Day
14h 02m
Waning Gibbous, 80% of the Moon is Illuminated
Aug 6
Waning Gibbous
Aug 9
Last Quarter
Aug 17
New
Aug 24
First Quarter
Aug 31
Full

Hourly Weather History & Observations

Time (CEST) Temp. Heat Index Dew Point Humidity Pressure Visibility Wind Dir Wind Speed Gust Speed Precip Events Conditions
12:00 AM 80.6 °F 85.4 °F 73.4 °F 79% 29.83 in 5.6 mi SSW 3.5 mph - N/A   Partly Cloudy
12:30 AM 80.6 °F 85.4 °F 73.4 °F 79% 29.80 in 5.6 mi Variable 1.2 mph - N/A   Partly Cloudy
1:00 AM 80.6 °F 85.4 °F 73.4 °F 79% 29.86 in 5.6 mi WSW 5.8 mph - N/A   Partly Cloudy
1:30 AM 80.6 °F 85.4 °F 73.4 °F 79% 29.83 in 5.6 mi Variable 1.2 mph - N/A   Partly Cloudy
2:00 AM 79 °F - 71 °F 69% 29.87 in 7 mi WSW 8.1 mph - -   Scattered Clouds
2:00 AM 80.6 °F 85.4 °F 73.4 °F 79% 29.86 in 6.2 mi SW 6.9 mph - N/A   Partly Cloudy
2:30 AM 80.6 °F 85.4 °F 73.4 °F 79% 29.86 in 6.2 mi South 3.5 mph - N/A   Partly Cloudy
3:00 AM 78.8 °F - 73.4 °F 83% 29.86 in 5.6 mi SE 3.5 mph - N/A   Partly Cloudy
3:30 AM 78.8 °F - 73.4 °F 83% 29.86 in 5.6 mi ESE 10.4 mph - N/A   Partly Cloudy
4:00 AM 78.8 °F - 73.4 °F 83% 29.86 in 5.6 mi SE 4.6 mph - N/A Rain Light Rain
4:30 AM 77.0 °F - 73.4 °F 89% 29.86 in 5.6 mi NE 2.3 mph - N/A   Partly Cloudy
5:00 AM 77.0 °F - 73.4 °F 89% 29.89 in 5.6 mi NE 2.3 mph - N/A   Partly Cloudy
5:30 AM 78.8 °F - 71.6 °F 78% 29.89 in 5.6 mi SSE 3.5 mph - N/A   Partly Cloudy
6:00 AM 77.0 °F - 71.6 °F 83% 29.89 in 5.6 mi Variable 2.3 mph - N/A Rain Light Rain
6:30 AM 78.8 °F - 71.6 °F 78% 29.89 in 5.6 mi East 4.6 mph - N/A Rain Light Rain
7:00 AM 77.0 °F - 73.4 °F 89% 29.83 in 5.0 mi ENE 9.2 mph - N/A   Partly Cloudy
7:30 AM 77.0 °F - 73.4 °F 89% 29.83 in 5.6 mi NE 10.4 mph - N/A   Partly Cloudy
8:00 AM 77 °F - 70 °F 74% 29.86 in 9 mi North 1.2 mph - -   Partly Cloudy
8:00 AM 77.0 °F - 73.4 °F 89% 29.86 in 6.2 mi Variable 1.2 mph - N/A   Partly Cloudy
8:30 AM 78.8 °F - 73.4 °F 83% 29.89 in 6.2 mi Variable 2.3 mph - N/A   Partly Cloudy
9:00 AM 78.8 °F - 73.4 °F 83% 29.89 in 6.2 mi Calm Calm - N/A   Partly Cloudy
9:30 AM 80.6 °F 85.4 °F 73.4 °F 79% 29.89 in 6.2 mi Calm Calm - N/A   Partly Cloudy
10:00 AM 80.6 °F 85.4 °F 73.4 °F 79% 29.95 in 6.2 mi Variable 2.3 mph - N/A   Partly Cloudy
10:02 AM 80.6 °F 85.4 °F 73.4 °F 79% 29.95 in 6.2 mi SSW 4.6 mph - N/A Rain Rain
10:30 AM 80.6 °F 85.4 °F 73.4 °F 79% 29.92 in 6.2 mi SSW 8.1 mph - N/A   Scattered Clouds
11:00 AM 80.6 °F 85.4 °F 73.4 °F 79% 29.95 in 6.2 mi SSW 6.9 mph - N/A   Scattered Clouds
11:30 AM 82.4 °F 88.2 °F 73.4 °F 74% 29.95 in 6.2 mi SW 3.5 mph - N/A   Scattered Clouds
12:00 PM 84.2 °F 89.6 °F 71.6 °F 66% 29.95 in 6.2 mi SSW 4.6 mph - N/A   Scattered Clouds
12:30 PM 84.2 °F 89.6 °F 71.6 °F 66% 29.95 in 6.2 mi SSW 3.5 mph - N/A   Scattered Clouds
1:00 PM 86.0 °F 91.8 °F 71.6 °F 62% 29.98 in 6.2 mi SW 6.9 mph - N/A   Partly Cloudy
1:30 PM 86.0 °F 91.8 °F 71.6 °F 62% 29.98 in 6.2 mi SSW 5.8 mph - N/A   Partly Cloudy
2:00 PM 86 °F - 68 °F 46% 29.99 in 11 mi SSW 8.1 mph - -   Partly Cloudy
2:00 PM 86.0 °F 91.8 °F 71.6 °F 62% 29.98 in 6.2 mi SSW 4.6 mph - N/A   Partly Cloudy
2:30 PM 86.0 °F 91.8 °F 71.6 °F 62% 29.98 in 6.2 mi SSW 3.5 mph - N/A   Partly Cloudy
3:00 PM 86.0 °F 91.8 °F 71.6 °F 62% 29.98 in 6.2 mi NE 15.0 mph - N/A   Partly Cloudy
3:30 PM 86.0 °F 91.8 °F 71.6 °F 62% 29.98 in 6.2 mi NE 18.4 mph - N/A   Partly Cloudy
4:00 PM 86.0 °F 91.8 °F 71.6 °F 62% 30.01 in 6.2 mi NE 18.4 mph - N/A   Partly Cloudy
4:30 PM 86.0 °F 90.4 °F 69.8 °F 58% 30.01 in 6.2 mi ENE 16.1 mph - N/A   Partly Cloudy
5:00 PM 84.2 °F 88.4 °F 69.8 °F 62% 30.01 in 6.2 mi ENE 16.1 mph - N/A   Partly Cloudy
5:30 PM 84.2 °F 88.4 °F 69.8 °F 62% 30.01 in 6.2 mi NE 18.4 mph - N/A   Partly Cloudy
6:00 PM 84.2 °F 88.4 °F 69.8 °F 62% 30.01 in 6.2 mi NE 18.4 mph - N/A   Partly Cloudy
6:30 PM 82.4 °F 86.3 °F 69.8 °F 66% 30.04 in 6.2 mi ENE 17.3 mph - N/A   Partly Cloudy
7:00 PM 82.4 °F 86.3 °F 69.8 °F 66% 30.04 in 6.2 mi ENE 15.0 mph - N/A   Partly Cloudy
7:30 PM 80.6 °F 83.9 °F 69.8 °F 70% 30.04 in 6.2 mi ENE 17.3 mph - N/A   Partly Cloudy
8:00 PM 79 °F - 66 °F 55% 30.05 in 12 mi ENE 18.4 mph - -   Scattered Clouds
8:00 PM 78.8 °F - 69.8 °F 74% 30.04 in 6.2 mi ENE 16.1 mph - N/A   Partly Cloudy
8:30 PM 78.8 °F - 68.0 °F 69% 30.04 in 6.2 mi ENE 18.4 mph - N/A   Partly Cloudy
9:00 PM 77.0 °F - 68.0 °F 74% 30.06 in 6.2 mi ENE 19.6 mph - N/A   Partly Cloudy
9:30 PM 77.0 °F - 69.8 °F 78% 30.06 in 6.2 mi ENE 12.7 mph - N/A   Partly Cloudy
10:00 PM 75.2 °F - 69.8 °F 83% 30.09 in 6.2 mi ENE 18.4 mph - N/A   Partly Cloudy
10:30 PM 75.2 °F - 68.0 °F 78% 30.09 in 6.2 mi ENE 18.4 mph - N/A   Partly Cloudy
11:00 PM 75.2 °F - 68.0 °F 78% 30.12 in 6.2 mi ENE 17.3 mph - N/A   Partly Cloudy
11:30 PM 75.2 °F - 68.0 °F 78% 30.12 in 6.2 mi NE 17.3 mph - N/A   Partly Cloudy